PACCTY-2 Weather Reports


Display with metric or nautical units.
time (UTC)temp
F
wind
direction
speed
MPH
gust
MPH
rain 1hr
in
rain 24hr
in
rain mn
in
humidity
%
barometer
mb
20260503184950 59 282 6.0 6.0 0.00 0.01 0.01
20260503183947 59 275 5.0 6.0 0.00 0.01 0.01
20260503183446 59 268 4.0 6.0 0.00 0.01 0.01
20260503182947 59 274 5.0 6.0 0.00 0.01 0.01
20260503182444 59 282 5.0 6.0 0.00 0.01 0.01
20260503181943 60 264 4.0 6.0 0.00 0.01 0.01
20260503181442 60 274 4.0 5.0 0.00 0.01 0.01
20260503180941 60 250 4.0 8.0 0.00 0.01 0.01
20260503180440 60 256 4.0 8.0 0.00 0.01 0.01
20260503174937 60 267 7.0 8.0 0.00 0.01 0.01
20260503174437 61 243 7.0 8.0 0.00 0.01 0.01
20260503174028 61 260 6.0 8.0 0.00 0.01 0.01
20260503173935 61 260 6.0 8.0 0.00 0.01 0.01
20260503173434 60 253 5.0 8.0 0.00 0.01 0.01
20260503172933 61 268 4.0 7.0 0.00 0.01 0.01
20260503172432 60 9 5.0 7.0 0.00 0.01 0.01
20260503171430 59 357 7.0 9.0 0.00 0.01 0.01
20260503170428 58 14 5.0 8.0 0.00 0.01 0.01
20260503150905 52 352 3.0 6.0 0.00 0.01 0.01
20260503150404 52 338 1.0 4.0 0.00 0.01 0.01
20260503131342 50 0 0.0 0.0 0.01 0.01 0.01
20260503130841 50 0 0.0 0.0 0.01 0.01 0.01
20260503130341 49 0 0.0 0.0 0.01 0.01 0.01
20260503110817 50 0 0.0 0.0 0.00 0.00 0.00
20260503110316 50 0 0.0 0.0 0.00 0.00 0.00
20260503090252 49 0 0.0 0.0 0.00 0.01 0.00
20260503080741 50 0 0.0 0.0 0.00 0.01 0.00
20260503080356 50 0 0.0 0.0 0.00 0.01 0.00
20260503080240 50 0 0.0 0.0 0.00 0.01 0.00
20260503072232 50 0 0.0 4.0 0.00 0.01 0.00
20260503071231 50 159 0.0 4.0 0.00 0.01 0.00
20260503060216 51 0 0.0 0.0 0.00 0.01 0.00
20260503054714 52 0 0.0 0.0 0.00 0.01 0.00
20260503053712 52 0 0.0 0.0 0.00 0.01 0.00
20260503053211 52 0 0.0 0.0 0.00 0.01 0.00
20260503052709 52 0 0.0 0.0 0.00 0.01 0.00
20260503052208 52 0 0.0 0.0 0.00 0.01 0.00
20260503051707 52 0 0.0 4.0 0.00 0.01 0.00
20260503051207 52 193 0.0 4.0 0.00 0.01 0.00
20260503050706 52 201 0.0 4.0 0.00 0.01 0.00
20260503045703 52 0 0.0 0.0 0.00 0.01 0.00
20260503042658 52 0 0.0 0.0 0.00 0.01 0.00
20260503035151 52 336 0.0 6.0 0.00 0.01 0.00